Location: Auckland
(36.8670°S, 174.7670°E)
Time: 19:07:12
(UTC+13:00)

Cosmos 1933 - Pass Details

Date: 24 January 2019
Orbit: 548 x 564 km, 82.5° (Epoch: 17 February)

Event Time Altitude Azimuth Distance (km) Brightness Sun altitude
Exits shadow 22:58:13 39° 312° (NW) 855 4.2 -23.1°
Maximum altitude 22:59:21 53° 261° (W) 702 4.0 -23.2°
Drops below altitude 10° 23:03:26 10° 183° (S) 1,887 6.7 -23.7°
Sets 23:05:41 0° 178° (S) 2,794 7.7 -24.0°
